www.pogodaiklimat.ru

Погода и климат >> Архив погоды >> Финляндия >> Танкар


ПОГОДА на Танкаре

  • Прогноз погоды на Танкаре
  • Монитор погоды на Танкаре

АРХИВ ПОГОДЫ на Танкаре

Время (UTC), дата Ветер
(напр.,м/с)
 
Видим.   Явления Облачность Т
(С)
Тd
(С)
f
(%)
Тe
(С)
Тes
(С)
Комфортность P
(гПа)
Po
(гПа)
Тmin
(С)
Tmax
(С)
R
(мм)
R24
(мм)
S
(см)
10 10.08 С 4 45 км ясно +14.1 +10.5 79 +13 +19 1014.1 1013.2
11 10.08 С 5 45 км ясно +14.8 +10.9 77 +13 +18 1013.7 1012.9
12 10.08 СВ 5-6
{6}
50 км ясно +14.3 +10.4 77 +13 +17 1013.5 1012.7
13 10.08 СВ 5 50 км ясно +13.7 +10.5 81 +12 +16 1013.3 1012.4
14 10.08 СВ 6 40 км ясно +13.8 +10.4 80 +12 +14 1013.0 1012.2
15 10.08 СВ 6-7
{8}
40 км ясно +14.0 +10.7 80 +12 +13 1012.7 1011.9
16 10.08 СВ 7 45 км ясно +13.8 +10.5 80 +11 +12 1012.2 1011.3
17 10.08 СВ 8-9
{9}
50 км ясно +13.2 +10.5 84 +10 +10 1011.7 1010.9
18 10.08 СВ 7-8
{9}
50 км ясно +13.8 +10.0 78 +11 +11 1011.4 1010.6 +12.7 +15.1
19 10.08 СВ 5 50 км ясно +13.1 +10.5 84 +11 +11 1011.5 1010.6
20 10.08 СВ 6 50 км ясно +12.9 +11.0 88 +10 +10 1011.1 1010.2
21 10.08 В 4-6
{6}
50 км ясно +13.3 +10.8 85 +12 +12 1010.8 1009.9
22 10.08 В 5-6
{6}
50 км ясно +13.8 +10.4 80 +12 +12 1010.4 1009.5
23 10.08 В 4-5
{5}
50 км 1/0
[]
+13.8 +10.0 78 +12 +12 1009.8 1009.0
00 11.08 ЮВ 6-9
{9}
14 км слаб. дождь 5/1 1500 м
[]
+13.5 +10.7 83 +11 +11 1009.3 1008.4
01 11.08 ЮВ 6-8
{9}
50 км в посл. час дождь 9/0 2000 м
[]
+14.1 +10.9 81 +12 +12 1008.9 1008.1
02 11.08 ЮВ 3 50 км 9/0 2000 м
[]
+13.8 +10.9 83 +13 +13 1009.0 1008.1
03 11.08 ЮВ 3-4
{4}
50 км {ливн. осадки, дождь} 4/4
[]
+12.9 +10.8 87 +11 +11 1008.7 1007.9
04 11.08 Ю 3 45 км ясно +12.9 +10.9 88 +11 +12 1008.7 1007.9
05 11.08 Ю 3-5
{5}
45 км 8/0
[]
+14.1 +11.6 85 +13 +14 1008.6 1007.8
06 11.08 ЮВ 3-4
{5}
40 км {ливн. осадки, дождь} 5/0
[]
+15.7 +12.4 81 +15 +17 1008.5 1007.7 +12.8 +15.8
07 11.08 В 3 35 км 4/4
[]
+15.1 +12.5 84 +14 +17 1008.3 1007.5
08 11.08 ЮВ 3-5
{5}
45 км 6/6 2000 м
[]
+15.7 +12.9 83 +15 +17 1008.3 1007.4
09 11.08 В 3-5
{5}
50 км 9/9 2000 м
[]
+16.8 +13.3 80 +17 +17 1008.1 1007.2
10 11.08 ЮВ 4 50 км 9/9 2000 м
[]
+17.9 +12.4 70 +18 +18 1007.8 1007.0
11 11.08 ЮВ 4 45 км слаб. ливневой дождь 9/9 1500 м
[]
+17.9 +13.2 74 +18 +18 1007.4 1006.6
12 11.08 ЮВ 5-8
{9}
45 км {ливн. осадки, дождь} 1/1
[]
+18.7 +13.5 72 +19 +23 1007.1 1006.3
13 11.08 ЮВ 6-9
{9}
40 км 8/1 1000 м
[]
+19.9 +13.2 65 +21 +23 комфорт 1006.7 1005.9
14 11.08 ЮВ 4 40 км 9/3 1000 м
[]
+19.8 +13.7 68 +22 +23 комфорт 1006.2 1005.4
15 11.08 ЮВ 4-6
{10}
50 км 9/9 2000 м
[]
+18.2 +13.4 74 +18 +19 1006.2 1005.3
16 11.08 ЮВ 7 50 км 9/3 1000 м
[]
+19.7 +12.2 62 +21 +21 комфорт 1005.9 1005.1
17 11.08 Ю 7 50 км 9/9
[]
+19.6 +11.7 60 +20 +20 1006.0 1005.2
18 11.08 ЮВ 7-10
{10}
50 км 9/9 1000 м
[]
+18.3 +12.3 68 +18 +18 1006.2 1005.4 +14.3 +20.4
19 11.08 ЮВ 6-11
{11}
50 км 9/9 600 м
[]
+17.2 +12.6 74 +16 +16 1006.5 1005.7
20 11.08 ЮВ 5 50 км 9/9 600 м
[]
+16.2 +12.7 80 +15 +15 1006.3 1005.5
21 11.08 ЮВ 5-8
{10}
50 км 9/9 600 м
[]
+15.8 +12.9 83 +15 +15 1006.3 1005.5
22 11.08 ЮВ 5 22 км 9/9 600 м
[]
+15.2 +13.1 87 +14 +14 1006.1 1005.3
23 11.08 ЮВ 4 50 км 10/10 300 м
[]
+14.6 +13.3 92 +13 +13 1006.0 1005.2
00 12.08 ЮВ 4-5
{7}
40 км {ливн. осадки, дождь} 10/10 200 м
[]
+14.2 +13.5 96 +13 +13 1005.8 1005.0
01 12.08 ЮВ 4 9000 м дымка 10/10 200 м
[]
+14.3 +13.5 95 +13 +13 1005.5 1004.7
02 12.08 ЮВ 3 35 км 9/9 200 м
[]
+14.2 +13.6 96 +13 +13 1005.3 1004.4
03 12.08 ЮВ 5-6
{6}
40 км {дымка} 10/10 200 м
[]
+14.6 +13.9 96 +13 +13 1005.1 1004.3
04 12.08 ЮВ 4-6
{6}
35 км 10/0 200 м
[]
+14.8 +14.2 96 +14 +14 1005.0 1004.2
05 12.08 ЮВ 4-5
{7}
19 км слаб. ливневой дождь 10/0 200 м
[]
+15.2 +14.6 96 +14 +14 1004.6 1003.8
06 12.08 Ю 4-7
{7}
26 км {ливн. осадки, дождь} 10/10 200 м
[]
+16.3 +15.4 94 +16 +16 1004.5 1003.7 +14.1 +18.5
07 12.08 Ю 4 40 км 9/9 200 м
[]
+16.8 +15.4 91 +16 +17 1004.5 1003.7
08 12.08 Ю 5 50 км 9/9 300 м
[]
+17.1 +15.2 89 +16 +17 1004.8 1004.0
09 12.08 Ю 3-5
{8}
35 км в посл. час дождь {ливн. осадки} 9/9 600 м
[]
+17.0 +15.7 92 +17 +18 1004.8 1004.0
10 12.08 ЮЗ 8-10
{11}
40 км 9/9 300 м
[]
+18.0 +14.1 78 +17 +17 1004.6 1003.8
11 12.08 Ю 6-8
{9}
50 км 10/0 1000 м
[]
+18.1 +13.4 74 +18 +18 1004.6 1003.8
12 12.08 ЮЗ 5-8
{9}
50 км {ливн. осадки, дождь} 9/9 600 м
[]
+18.1 +13.4 74 +18 +18 1004.7 1003.9
13 12.08 ЮЗ 4 45 км 9/9 1500 м
[]
+18.1 +13.3 74 +18 +19 1004.8 1004.0
14 12.08 ЮЗ 4 35 км 9/3 600 м
[]
+18.0 +13.7 76 +18 +19 1004.7 1003.9
15 12.08 ЮЗ 5-7
{7}
35 км 8/8 1500 м
[]
+17.1 +13.9 81 +16 +17 1004.3 1003.5
16 12.08 ЮЗ 6 40 км 4/4 1500 м
[]
+16.9 +13.8 82 +16 +16 1004.3 1003.5
17 12.08 ЮЗ 2-3
{7}
40 км 9/1 1500 м
[]
+15.9 +13.6 86 +16 +16 1004.6 1003.8
18 12.08 Ю 1-1
{3}
30 км 8/5 1000 м
[]
+15.0 +13.4 90 +15 +15 1004.5 1003.7 +14.9 +19.2
19 12.08 В 4-5
{5}
27 км 9/0 1000 м
[]
+14.4 +13.6 95 +13 +13 1004.7 1003.8
20 12.08 В 4-5
{6}
20 км морось 9/0 600 м
[]
+14.8 +13.9 94 +14 +14 1004.2 1003.4
21 12.08 Ю 2-3
{5}
40 км в посл. час морось {ливн. осадки, дождь} 9/9 600 м
[]
+15.6 +13.8 89 +15 +15 1004.1 1003.2
22 12.08 Ю 3 30 км 9/9 1500 м
[]
+15.2 +13.7 91 +14 +14 1004.1 1003.3
23 12.08 ЮВ 3 35 км 9/5 600 м
[]
+14.9 +13.4 91 +14 +14 1004.0 1003.1
00 13.08 Ю 4-6
{6}
27 км {ливн. осадки, дождь} 3/3 1500 м
[]
+14.6 +13.4 93 +13 +13 1003.7 1002.9
01 13.08 Ю 4-6
{7}
30 км 9/1 1500 м
[]
+14.8 +13.6 93 +14 +14 1003.7 1002.9
02 13.08 Ю 4 26 км 9/1 1000 м
[]
+14.7 +13.6 93 +13 +13 1003.5 1002.7
03 13.08 ЮВ 4-5
{6}
25 км 9/1 1500 м
[]
+14.4 +13.5 94 +13 +13 1003.3 1002.5
04 13.08 Ю 3 22 км ясно +14.2 +13.4 95 +13 +14 1003.2 1002.3
05 13.08 Ю 4-5
{6}
29 км 5/1 200 м
[]
+14.8 +13.6 93 +14 +14 1003.0 1002.2
06 13.08 Ю 4-5
{5}
30 км 9/6 200 м
[]
+15.5 +13.9 90 +14 +15 1003.2 1002.3 +14.1 +15.7
07 13.08 Ю 4 30 км 8/8 2000 м
[]
+15.8 +13.8 88 +15 +16 1003.2 1002.4
08 13.08 Ю 5-8
{8}
40 км 9/0 300 м
[]
+16.2 +13.8 86 +15 +16 1003.3 1002.5
09 13.08 Ю 4-7
{8}
45 км 9/9 300 м
[]
+17.4 +13.8 79 +17 +18 1003.3 1002.5
10 13.08 З 3 45 км 9/9 600 м
[]
+16.9 +13.6 81 +17 +18 1003.2 1002.3
11 13.08 СЗ 1 30 км 9/9 1000 м
[]
+17.6 +13.4 76 +19 +20 1002.9 1002.0
12 13.08 ЮЗ 4-6
{7}
50 км 9/8 1000 м
[]
+18.2 +13.1 72 +18 +19 1002.7 1001.9
13 13.08 Ю 2 10 км ливневой дождь 9/9 1000 м
[]
+16.5 +14.4 87 +17 +17 1002.9 1002.1
14 13.08 ЮЗ 5 50 км 9/6 1000 м
[]
+16.8 +14.3 85 +16 +17 1002.9 1002.0
15 13.08 ЮЗ 3-5
{6}
50 км {ливн. осадки, дождь} 9/9 600 м
[]
+16.9 +14.1 84 +17 +17 1002.8 1002.0
16 13.08 ЮЗ 4 45 км 9/6 300 м
[]
+16.3 +13.9 86 +16 +16 1002.8 1002.0
17 13.08 В 1 45 км 9/9 300 м
[]
+15.4 +13.9 91 +16 +16 1003.0 1002.2
18 13.08 ЮВ 2-3
{3}
50 км {ливн. осадки, дождь} 9/9 300 м
[]
+15.7 +13.6 87 +16 +16 1003.0 1002.1 +15.2 +19.2
19 13.08 ЮВ 2 50 км 9/3 1000 м
[]
+15.4 +13.7 90 +15 +15 1002.7 1001.9
20 13.08 Ю 2 40 км 9/1 600 м
[]
+14.9 +14.0 94 +15 +15 1002.7 1001.9
21 13.08 Ю 1-2
{3}
35 км 10/10 2000 м
[]
+15.0 +14.2 95 +15 +15 1002.6 1001.7
22 13.08 Ю 3 45 км 10/10 2000 м
[]
+15.1 +14.0 93 +14 +14 1002.4 1001.6
23 13.08 Ю 3 50 км 9/9 2000 м
[]
+14.9 +13.0 88 +14 +14 1002.2 1001.4
00 14.08 Ю 3-5
{5}
50 км 9/9 600 м
[]
+14.8 +12.6 87 +14 +14 1002.1 1001.3
01 14.08 Ю 3 50 км 9/8 600 м
[]
+14.6 +12.5 87 +14 +14 1002.0 1001.2
02 14.08 Ю 3-5
{5}
50 км 9/3 1000 м
[]
+14.1 +12.3 89 +13 +13 1001.9 1001.0
03 14.08 Ю 3-5
{5}
45 км 9/1 1500 м
[]
+13.5 +12.3 92 +12 +12 1001.7 1000.9
04 14.08 Ю 3 50 км 9/3 1000 м
[]
+13.8 +12.5 92 +13 +13 1001.6 1000.8
05 14.08 Ю 3 28 км слаб. ливневой дождь 9/3 1500 м
[]
+14.0 +12.5 91 +13 +13 1001.6 1000.7
06 14.08 Ю 3-4
{4}
45 км {ливн. осадки, дождь} 9/9 600 м
[]
+15.3 +12.9 86 +15 +15 1001.6 1000.8 +13.4 +15.8
07 14.08 Ю 4-4
{6}
40 км 6/4 1000 м
[]
+16.1 +12.7 80 +15 +17 1001.4 1000.6
08 14.08 Ю 3-5
{5}
35 км 5/0 1000 м
[]
+17.6 +13.3 76 +18 +21 1001.3 1000.4
09 14.08 З 5-6
{6}
45 км 6/6 1000 м
[]
+16.1 +13.5 85 +15 +17 1001.5 1000.7
10 14.08 З 5 40 км ясно +16.2 +14.0 87 +15 +20 1001.5 1000.7
11 14.08 З 4 45 км 9/9
[]
+15.2 +13.9 92 +14 +15 1001.6 1000.8
12 14.08 З 6-7
{7}
40 км 1/1 1000 м
[]
+16.2 +14.4 89 +15 +18 1001.6 1000.8
13 14.08 ЮЗ 5 45 км ясно +16.5 +14.5 88 +16 +19 1001.5 1000.7
14 14.08 ЮЗ 5-7
{7}
45 км ясно +16.4 +13.8 85 +15 +17 1001.3 1000.5
15 14.08 ЮЗ 5-7
{8}
50 км 1/1
[]
+16.3 +13.4 83 +15 +17 1001.5 1000.6
16 14.08 ЮЗ 7 50 км ясно +15.4 +12.6 83 +14 +14 1001.6 1000.8
17 14.08 ЮЗ 7 50 км ясно +15.2 +12.4 83 +13 +13 1001.6 1000.8
18 14.08 ЮЗ 8-11
{11}
50 км 5/0
[]
+15.1 +11.9 81 +13 +13 1001.8 1001.0 +15.1 +18.1
19 14.08 ЮЗ 8 50 км 9/0
[]
+15.0 +11.5 80 +13 +13 1001.8 1001.0
20 14.08 ЮЗ 7 50 км 9/8 1500 м
[]
+14.9 +11.7 81 +13 +13 1001.7 1000.8
21 14.08 ЮЗ 6-8
{10}
50 км ясно +14.5 +12.0 85 +13 +13 1001.7 1000.9
22 14.08 ЮЗ 5 50 км ясно +14.4 +11.9 85 +13 +13 1001.6 1000.7
23 14.08 Ю 4 50 км ясно +13.4 +11.6 89 +12 +12 1001.4 1000.6
00 15.08 Ю 4-6
{7}
50 км ясно +13.0 +11.5 91 +11 +11 1001.4 1000.6
01 15.08 Ю 5 50 км ясно +12.7 +11.4 92 +10 +10 1001.3 1000.5
02 15.08 Ю 4-6
{7}
50 км 1/1
[]
+12.1 +11.1 94 +10 +10 1001.2 1000.4
03 15.08 Ю 4-6
{6}
50 км ясно +11.7 +11.0 95 +9 +9 1001.2 1000.4
04 15.08 Ю 5-6
{7}
50 км ясно +12.3 +11.2 93 +10 +10 1001.2 1000.4
05 15.08 Ю 5 50 км 9/9 200 м
[]
+13.0 +11.8 92 +11 +11 1001.1 1000.3
06 15.08 Ю 5-7
{8}
50 км ясно +13.5 +12.2 92 +11 +13 1001.1 1000.2 +11.6 +15.1
07 15.08 Ю 5 50 км 5/5 200 м
[]
+14.3 +12.4 88 +13 +14 1001.1 1000.3
08 15.08 З 5 50 км в посл. час морось 9/9 200 м
[]
+14.4 +12.1 86 +13 +13 1001.3 1000.5
09 15.08 З 5-6
{6}
50 км {ливн. осадки, дождь} 4/4 200 м
[]
+15.4 +11.6 78 +14 +17 1001.6 1000.8
10 15.08 З 4 50 км 9/9 300 м
[]
+14.7 +11.7 82 +13 +14 1001.9 1001.0
11 15.08 З 6-7
{7}
45 км 8/0 300 м
[]
+15.7 +12.4 81 +14 +16 1002.2 1001.4
12 15.08 ЮЗ 5-6
{7}
50 км {ливн. осадки, дождь} 4/4 300 м
[]
+16.4 +12.8 79 +15 +18 1002.5 1001.7
13 15.08 З 8 40 км 4/4 600 м
[]
+16.2 +12.4 78 +15 +15 1002.8 1001.9
14 15.08 ЮЗ 9-10
{10}
45 км 6/6 300 м
[]
+15.9 +12.2 79 +14 +14 1003.1 1002.3
15 15.08 ЮЗ 7-10
{10}
45 км 6/6 2000 м
[]
+16.1 +12.1 77 +15 +15 1003.5 1002.7
16 15.08 ЮЗ 7 50 км ясно +16.0 +12.7 81 +14 +15 1003.6 1002.8
17 15.08 З 8 50 км 9/9 1000 м
[]
+15.7 +12.7 82 +14 +14 1004.0 1003.2
18 15.08 З 9-10
{11}
50 км 9/9 1000 м
[]
+15.4 +11.7 79 +13 +13 1004.4 1003.6 +13.5 +16.9
19 15.08 З 8-9
{10}
50 км 9/9 600 м
[]
+15.3 +11.9 80 +13 +13 1004.8 1004.0
20 15.08 З 9-9
{11}
50 км 9/0 600 м
[]
+15.2 +12.5 84 +13 +13 1005.1 1004.2
21 15.08 З 8-10
{10}
50 км 9/9
[]
+14.7 +12.2 85 +12 +12 1005.4 1004.5
22 15.08 З 9 50 км 5/3 1000 м
[]
+14.4 +12.5 88 +12 +12 1005.6 1004.8
23 15.08 З 9 50 км 9/6 600 м
[]
+14.7 +12.5 87 +12 +12 1006.0 1005.1
00 16.08 З 9-11
{11}
50 км 9/1 1000 м
[]
+14.9 +12.2 84 +13 +13 1006.4 1005.6
01 16.08 З 10 50 км 9/3 1000 м
[]
+14.8 +11.6 81 +12 +12 1006.7 1005.9
02 16.08 З 10-11
{12}
50 км 9/5 1500 м
[]
+14.7 +11.3 80 +12 +12 1006.9 1006.1
03 16.08 З 10-11
{12}
50 км 9/1 1500 м
[]
+14.5 +11.4 82 +12 +12 1007.3 1006.5
04 16.08 З 9 50 км 10/10
[]
+14.5 +11.4 82 +12 +12 1007.6 1006.8
05 16.08 З 8-10
{10}
50 км 10/0
[]
+14.6 +11.6 82 +12 +12 1008.0 1007.2
06 16.08 ЮЗ 9-11
{11}
50 км 9/9
[]
+14.7 +11.3 80 +12 +12 1008.5 1007.7 +14.3 +15.4
07 16.08 ЮЗ 9 50 км 9/9
[]
+15.0 +11.5 80 +13 +13 1008.7 1007.9
08 16.08 ЮЗ 8 40 км 4/4
[]
+15.8 +11.3 75 +14 +15 1009.1 1008.3
09 16.08 ЮЗ 8-11
{11}
50 км ясно +16.2 +11.2 72 +15 +16 1009.8 1009.0
10 16.08 ЮЗ 7-10
{12}
50 км ясно +16.9 +9.7 63 +16 +18 1010.1 1009.3
11 16.08 ЮЗ 6 45 км ясно +17.8 +10.6 63 +17 +21 1010.3 1009.5
12 16.08 ЮЗ 6-9
{9}
45 км ясно +18.2 +10.6 61 +18 +21 1010.4 1009.5
13 16.08 ЮЗ 7 45 км ясно +18.8 +9.9 56 +19 +21 1010.4 1009.6
14 16.08 ЮЗ 7 35 км ясно +18.9 +10.5 58 +19 +20 1010.5 1009.7
15 16.08 З 5-6
{9}
22 км ясно +17.1 +13.1 77 +16 +18 1010.5 1009.7
16 16.08 ЮЗ 5 23 км ясно +17.4 +11.2 67 +17 +18 1010.5 1009.7
17 16.08 ЮЗ 6-8
{8}
50 км ясно +16.8 +11.4 70 +16 +16 1010.5 1009.7
18 16.08 ЮЗ 6-8
{10}
50 км ясно +16.2 +12.1 77 +15 +15 1010.5 1009.7 +14.6 +19.1
19 16.08 ЮЗ 6 50 км ясно +16.0 +12.3 79 +15 +15 1010.7 1009.8
20 16.08 Ю 3-4
{7}
50 км 10/0
[]
+15.5 +12.8 84 +15 +15 1010.8 1010.0
21 16.08 ЮЗ 5-6
{8}
45 км слаб. ливневой дождь 9/1 1500 м
[]
+16.2 +11.5 74 +15 +15 1010.8 1010.0
22 16.08 Ю 4 50 км в посл. час дождь 9/9 1000 м
[]
+15.4 +12.2 81 +14 +14 1010.7 1009.8
23 16.08 Ю 4 50 км 9/8 1500 м
[]
+15.4 +11.6 78 +14 +14 1010.4 1009.6
00 17.08 Ю 5-7
{9}
50 км {ливн. осадки, дождь} 9/9 2000 м
[]
+15.6 +11.5 77 +14 +14 1010.2 1009.3
01 17.08 Ю 5 50 км 9/9 1500 м
[]
+15.5 +11.4 77 +14 +14 1010.0 1009.2
02 17.08 Ю 7-8
{9}
50 км 9/0 2000 м
[]
+15.8 +11.4 75 +14 +14 1009.8 1009.0
03 17.08 Ю 5-7
{9}
50 км 4/4 2000 м
[]
+15.2 +11.5 79 +14 +14 1009.5 1008.6
04 17.08 Ю 5 50 км 4/4 300 м
[]
+15.3 +11.8 80 +14 +14 1009.5 1008.7
05 17.08 Ю 6 50 км 9/4 300 м
[]
+15.8 +12.0 78 +14 +15 1009.6 1008.8
06 17.08 Ю 5-8
{10}
24 км слаб. ливневой дождь 9/9 300 м
[]
+15.8 +12.9 83 +15 +15 1009.4 1008.6 +14.9 +16.5
07 17.08 Ю 6-8
{9}
40 км 8/8 1000 м
[]
+17.4 +13.7 79 +17 +17 1009.5 1008.6
08 17.08 Ю 5 40 км 5/5 300 м
[]
+18.4 +14.1 76 +19 +20 1009.4 1008.6
09 17.08 Ю 5-7
{8}
50 км {ливн. осадки, метель} 9/9 600 м
[]
+18.6 +13.8 74 +19 +19 1009.5 1008.6
10 17.08 З 4 45 км 9/9 600 м
[]
+17.3 +14.4 83 +17 +18 1009.7 1008.8

 

Местоположение метеостанции Танкар (Финляндия): широта 63.95 долгота 22.84 высота над уровнем моря 5 м.

В архиве по умолчанию представлена погода на Танкаре за последнюю неделю. Архивные данные за месяц целиком и за предыдущие месяцы, начиная с января 2011 года, Вы можете получить, выбрав интересующий диапазон дат из раскрывающегося списка и нажав кнопку "Ввод!".


*Определитесь, кто Вы:
робот инопланетянин человек

Внимание! Время в таблицах - всемирное. Для получения местного времени необходимо прибавить поправку, которая равна 1 ч.

Смотрите также архив погоды в соседних городах и на ближайших метеорологических станциях:

Погода в Кокколе (Финляндия) (18 км)
Погода на Острове Каллан (Финляндия) (27 км)
Погода в Круунупюу (Финляндия) (30 км)
Погода на Острове Улкокалла (Финляндия) (52 км)
Погода в Лаитале (Финляндия) (66 км)
Погода в Бюроклуббе (Швеция) (85 км)
Погода в Хокмарксбергете (Швеция) (88 км)
Погода на Маяке Nahkiainen (Финляндия) (90 км)
Погода в Каухаве (Финляндия) (91 км)
Погода в Юливиеске (Финляндия) (92 км)

Пояснения к столбцам:

Ветер - указаны скорость ветра в м/с - средняя за 10 мин, порывы в срок и между сроками (в фигурных скобках) и направление, откуда дует ветер: С - северный, СВ - северо-восточный, В - восточный, ЮВ - юго-восточный, Ю - южный, ЮЗ - юго-западный, З - западный, СЗ - северо-западный.
Видимость - горизонтальная дальность видимости в метрах или километрах. При видимости от 1 до 10 км при отсутствии осадков обычно наблюдается дымка, при ухудшении видимости до 1 км и менее - туман. В сухую погоду видимость может ухудшаться дымом, пылью или мглою.
Явления - указаны атмосферные явления, наблюдавшиеся в срок или в последний час перед сроком; фигурными скобками обозначены явления, наблюдавшиеся между сроками (за 1-3 часа до срока); квадратными скобками обозначены град или гололедные отложения с указанием их диаметра в мм.
Облачность - указаны через наклонную черту общая и нижняя облачность в баллах и высота нижней границы облаков в метрах; квадратными скобками обозначены формы облаков: Ci - перистые, Cs - перисто-слоистые, Cc - перисто-кучевые, Ac - высококучевые, As - высокослоистые, Sc - слоисто-кучевые, Ns - слоисто-дождевые, Cu - кучевые, Cb - кучево-дождевые. Подробнее классификацию облаков см. в Атласе облаков (PDF).
T - Температура воздуха - температура, измеренная на высоте 2 м над землей.
Td - Температура точки росы - температура, при понижении до которой содержащийся в воздухе водяной пар достигнет насыщения.
f - Относительная влажность воздуха - влажноcть воздуха, измеренная на высоте 2 м над землей.
Te - Эффективная температура - температура, которую ощущает одетый по сезону человек в тени. Характеристика душности погоды. При расчете учитывается влияние влажности воздуха и скорости ветра на теплоощущения человека.
Tes - Эффективная температура на солнце - температура, которую ощущает человек, с поправкой на солнечный нагрев. Характеристика знойности погоды. Зависит от высоты солнца над горизонтом, облачности и скорости ветра. Ночью, в пасмурную погоду, а также при ветре 12 м/с и более поправка равна нулю.
P - Атмосферное давление - приведенное к уровню моря атмосферное давление.
Po - Атмосферное давление - измеренное на уровне метеостанции атмосферное давление.
Tmin - Минимальная температура - минимум температуры воздуха на высоте 2 м над землей.
Tmax - Максимальная температура - максимум температуры воздуха на высоте 2 м над землей.
R - Количество осадков - Количество выпавших осадков за период времени, мм. При наведении курсора мыши на число - период времени, за который выпало указанное количество осадков.
R24 - Количество осадков - Количество выпавших осадков за 24 часа, мм.
S - Снежный покров - Высота снежного покрова, см. При наведении курсора мыши на число - состояние снежного покрова и степень покрытия местности в баллах.